Location: Holyhead Bay
(53.3667°N, 4.6667°W)
Time: 18:59:57
(UTC+00:00)

SAR-Lupe-4 - Pass Details

Date: 24 November 2020
Orbit: 481 x 484 km, 98.2° (Epoch: 09 January)

Event Time Altitude Azimuth Distance (km) Brightness Sun altitude
Exits shadow 18:50:13 48° 201° (SSW) 639 4.2 -23.1°
Drops below altitude 10° 18:52:53 10° 198° (SSW) 1,665 6.5 -23.5°
Sets 18:54:56 0° 198° (SSW) 2,541 7.5 -23.8°
